{"data":{"norad_id":57262,"intl_designator":"2023-094AW","name":"STARLINK-5504","alt_names":[],"object_type":"PAYLOAD","status":"ACTIVE","operator":null,"country":"US","launch_date":"2023-07-07","launch_site_code":"AFWTR","launch_vehicle":null,"mission":null,"orbit_class":"UNKNOWN","rcs_meters":null,"size_class":null,"mass_kg":null,"dimensions":null,"purposes":["comms"],"wikipedia_slug":null,"has_3d_model":false,"image_url":null,"decayed_at":null,"tle_current":{"epoch":"2026-09-20T17:52:13.986912Z","epoch_age_seconds":103089,"freshness":"FRESH","line1":"1 57262U 23094AW  26263.74460633  .00000121  00000+0  13923-4 0  9997","line2":"2 57262  43.0036 358.1055 0001716 297.6621  62.4057 15.27573051177077","mean_motion":15.27573051,"eccentricity":0.0001716,"inclination_deg":43.0036,"raan_deg":358.1055,"arg_perigee_deg":297.6621,"mean_anomaly_deg":62.4057,"bstar":1.3923e-5,"rev_number":17707,"period_min":94.267177537423,"perigee_km":481.89252081971,"apogee_km":484.24728702914,"semimajor_km":6861.2069039244,"source":"CELESTRAK","updated_at":"2026-09-21T09:00:33.593499Z"}}}